This is the latest recevied weather packets stored in our database for station/object KD8BMB. If no packets are shown the sender has not sent any weather packets the latest 10 day(s).
| Time | Temp. | Humidity | Pressure | Rain* | Wind** | Luminosity | Snow |
|---|---|---|---|---|---|---|---|
| 1777999622 | 12.22° C | 74% | 1006.3 hPa | 0 mm | - | 323 W/m² | - |
| 1777999319 | 11.67° C | 75% | 1006.4 hPa | 0 mm | - | 345 W/m² | - |
| 1777999017 | 11.11° C | 77% | 1006.4 hPa | 0 mm | - | 349 W/m² | - |
| 1777998715 | 11.11° C | 78% | 1006.5 hPa | 0 mm | - | 367 W/m² | - |
| 1777998413 | 11.67° C | 77% | 1006.1 hPa | 0 mm | - | 327 W/m² | - |
| 1777998110 | 11.11° C | 80% | 1006.4 hPa | 0 mm | - | 338 W/m² | - |
| 1777997807 | 10.56° C | 81% | 1006.4 hPa | 0 mm | - | 281 W/m² | - |
| 1777997504 | 10.56° C | 82% | 1006.3 hPa | 0 mm | - | 224 W/m² | - |
| 1777997202 | 10.56° C | 80% | 1006.4 hPa | 0 mm | - | 218 W/m² | - |
| 1777996899 | 10.56° C | 81% | 1006.3 hPa | 0 mm | - | 201 W/m² | - |
| 1777996595 | 10° C | 81% | 1006.4 hPa | 0 mm | - | 151 W/m² | - |
| 1777996291 | 10.56° C | 81% | 1006.4 hPa | 0 mm | - | 155 W/m² | - |
| 1777995988 | 10° C | 81% | 1006.6 hPa | 0 mm | - | 232 W/m² | - |
| 1777995683 | 10° C | 82% | 1006.6 hPa | 0 mm | - | 144 W/m² | - |
| 1777995381 | 10° C | 81% | 1006.6 hPa | 0 mm | - | 146 W/m² | - |
| 1777995078 | 10° C | 81% | 1006.9 hPa | 0 mm | - | 143 W/m² | - |
| 1777994775 | 10° C | 83% | 1006.5 hPa | 0 mm | - | 296 W/m² | - |
| 1777994471 | 10° C | 85% | 1006.7 hPa | 0 mm | - | 264 W/m² | - |
| 1777994166 | 9.44° C | 85% | 1006.3 hPa | 0 mm | - | 144 W/m² | - |
| 1777993864 | 9.44° C | 87% | 1006.4 hPa | 0 mm | - | 100 W/m² | - |
| 1777993560 | 9.44° C | 87% | 1006.5 hPa | 0 mm | - | 100 W/m² | - |
| 1777993256 | 9.44° C | 87% | 1006 hPa | 0 mm | - | 87 W/m² | - |
| 1777992952 | 9.44° C | 86% | 1006.1 hPa | 0 mm | - | 96 W/m² | - |
| 1777992651 | 9.44° C | 86% | 1006.1 hPa | 0 mm | - | 104 W/m² | - |
| 1777992348 | 9.44° C | 85% | 1005.9 hPa | 0 mm | - | 65 W/m² | - |
* Rain latest hour (hover to see other rain measurements)
** Current wind speed in m/s (hover to see current wind gust speed)